COSMOS 1275 DEB, 39957

Orbit data source: Space-Track

COSMOS 1275 DEB, 39957 is space debris in LEO originally from a launch on Thu, 04 Jun 1981 UTC launched from the Plesetsk Missile And Space Complex (PKMTR). Debris objects in space refer to the collection of defunct objects orbiting the Earth. Examples of debris include non-operational satellites, rocket bodies, and fragments generated from explosions, collisions, or faulty payload assembly.

Loading next visibility...
Identifier
39957, 1981-053NT
Orbit
LEO
Country
Flag of CISCIS
Related business
Manufacturer
Unknown
Mission
Spacecraft
Bus & Motor
Unknown
Mass
Unknown
Launch date (UTC)
1981-06-04 (44 years ago)
Launch vehicle
Unknown
Launch site
Plesetsk Missile And Space Complex (PKMTR)
Object type
Payload
Rocket body
Debris
Shape & HBR
Unknown shape, 0.1 m
Radar Cross Section
Small (<0.1 m²)

Expand to show TLE details & history
Last TLE update: 2 days ago

TLE from 2 days ago
0 COSMOS 1275 DEB
1 39957U 81053NT  25284.58876313  .00000135  00000-0  12647-3 0  9994
2 39957  82.9279  39.8360 0036128 284.0833  90.7609 13.74636009569492
Epoch: 2025-10-11T14:07Z
TLE epoch observation values (Epoch: 2025-10-11T14:07:49.134Z)
Latitude
15.115°
Longitude
169.37352°
Altitude
985.625 km
Speed
7.36 km/s
True Right ascension
02h 46m 59s
True Declination
15° 01' 53"
Sunlit
Object was in full shadow at epoch
Visualization orbit readout
Latitude
Unknown
Longitude
Unknown
Altitude
Unknown
Speed
Unknown
Apparent Right ascension
Unknown
Apparent Declination
Unknown
Sunlit
N/A
Visualization observer readout
Local Sidereal Time
19:15:36
Azimuth
Unknown
Elevation
Unknown
Doppler factor
Unknown
Orbital elements
Apogee altitude
1,006.708 km
Perigee altitude
953.54 km
Semi-major axis
7,358.261 km
Eccentricity
0.00361
Inclination
82.9279°
RAAN
39.836°
Arg. of periapsis
284.0833°
True anomaly
91.17483°
Mean anomaly
90.7609°
Eccentric anomaly
90.96787°
Mean motion
3.43859 °/min
Orbital period
104.69 mins
BSTAR
0.00012647
Loading maneuver chart data...
Computing Atmospheric mass density...
Loading historical data...
Loading historical data...
Loading historical data...
Loading historical data...
Loading historical data...
Loading historical data...
Loading historical data...

Documentation

Showing up to 5 results
|